sat.trackr.live / text

‹ back to catalog

STARLINK-5274

NORAD 55395 · 2023-014E

PAYLOAD ACTIVE UNKNOWN

§ Identity

Operator
Country
US
Launch date
2023-01-31
Launch site
AFWTR
Launch vehicle
Mass (kg)
RCS (m²)

Purposes: comms

External: N2YO · Heavens-Above · Gunter

§ Orbital elements

Epoch: 2026-09-20T18:57:53.487360Z

Period
96.10 min
Inclination
69.9957°
Eccentricity
0.0004811
Mean motion
14.98392923 rev/d
Perigee alt
568.5 km
Apogee alt
575.2 km
Semi-major
6,950.0 km
B*
-1.0960e-3
RAAN
292.3651°
Arg perigee
273.5780°
Mean anomaly
86.4829°
Rev number
20,128

§ Raw data

STARLINK-52741 55395U 23014E   26263.79020240 -.00013169  00000+0 -10960-2 0  99992 55395  69.9957 292.3651 0004811 273.5780  86.4829 14.98392923201288

JSON: /api/v1/satellites/55395 · /tle

For live sub-satellite position, see the globe view (requires WebGL).

§ Visibility from observer

Set your observer location to see the next 7 days of passes ≥ 10°. The values pass through the URL so the page stays shareable.

No JS? Fill the form by hand. The geolocation button needs JavaScript.